When you browse on this site, cookies collect data to enhance your experience and personalize the content and advertising you see.
Visit our Privacy Policy to learn more. By continuing to use the site, you agree to this use of cookies and data.
  • en Suisse
  • Liste des pays
  • À 7 jours
  • Température de l'eau
  • Carte météo
  • Widgets météo
  • user-avatar
    Se connecter

    Météo par heure à Morevo

    Ce jour, 20 Août, Mardi

    Heure Température Précipitation Vent Pression Humidité
    00:00 +17°C° 0 mm 2 m/s 748 mmHg 90%
    01:00 +17°C° 0 mm 2 m/s 748 mmHg 89%
    02:00 +17°C° 0 mm 2 m/s 748 mmHg 89%
    03:00 +16°C° 0 mm 2 m/s 748 mmHg 89%
    04:00 +16°C° 0 mm 2 m/s 748 mmHg 89%
    05:00 +16°C° 0 mm 2 m/s 749 mmHg 89%
    06:00 +17°C° 0.1 mm 2 m/s 749 mmHg 86%
    07:00 +19°C° 0.1 mm 2 m/s 749 mmHg 83%
    08:00 +20°C° 0.1 mm 2 m/s 749 mmHg 80%
    09:00 +23°C° 0 mm 2 m/s 749 mmHg 77%
    10:00 +24°C° 0 mm 2 m/s 749 mmHg 74%
    11:00 +25°C° 0 mm 2 m/s 750 mmHg 72%
    12:00 +26°C° 0.7 mm 2 m/s 750 mmHg 74%
    13:00 +26°C° 0.7 mm 2 m/s 750 mmHg 76%
    14:00 +27°C° 0.7 mm 2 m/s 750 mmHg 78%
    15:00 +26°C° 0.9 mm 2 m/s 750 mmHg 81%
    16:00 +25°C° 0.9 mm 1 m/s 750 mmHg 84%
    17:00 +25°C° 0.9 mm 1 m/s 750 mmHg 87%
    18:00 +23°C° 0.1 mm 1 m/s 750 mmHg 88%
    19:00 +22°C° 0.1 mm 1 m/s 750 mmHg 90%
    20:00 +21°C° 0.1 mm 1 m/s 750 mmHg 91%
    21:00 +21°C° 0 mm 1 m/s 750 mmHg 92%
    22:00 +21°C° 0 mm 1 m/s 750 mmHg 92%
    23:00 +20°C° 0 mm 1 m/s 750 mmHg 93%

    Demain, 21 Août, Mercredi

    Heure Température Précipitation Vent Pression Humidité
    00:00 +20°C° 0 mm 1 m/s 750 mmHg 94%
    01:00 +20°C° 0 mm 1 m/s 751 mmHg 94%
    02:00 +20°C° 0 mm 1 m/s 751 mmHg 94%
    03:00 +20°C° 0.6 mm 1 m/s 750 mmHg 95%
    04:00 +19°C° 0.6 mm 1 m/s 750 mmHg 95%
    05:00 +19°C° 0.6 mm 1 m/s 750 mmHg 96%
    06:00 +20°C° 0.2 mm 1 m/s 750 mmHg 94%
    07:00 +20°C° 0.2 mm 2 m/s 750 mmHg 92%
    08:00 +21°C° 0.2 mm 2 m/s 750 mmHg 90%
    09:00 +23°C° 0 mm 2 m/s 750 mmHg 85%
    10:00 +24°C° 0 mm 2 m/s 750 mmHg 79%
    11:00 +26°C° 0 mm 3 m/s 750 mmHg 74%
    12:00 +27°C° 0 mm 3 m/s 750 mmHg 70%
    13:00 +27°C° 0 mm 3 m/s 750 mmHg 67%
    14:00 +28°C° 0 mm 4 m/s 750 mmHg 63%
    15:00 +28°C° 0.2 mm 3 m/s 749 mmHg 68%
    16:00 +27°C° 0.2 mm 3 m/s 749 mmHg 73%
    17:00 +27°C° 0.2 mm 3 m/s 748 mmHg 77%
    18:00 +25°C° 0.2 mm 3 m/s 748 mmHg 81%
    19:00 +24°C° 0.2 mm 2 m/s 748 mmHg 85%
    20:00 +21°C° 0.2 mm 2 m/s 748 mmHg 89%
    21:00 +21°C° 0 mm 2 m/s 748 mmHg 89%
    22:00 +20°C° 0 mm 3 m/s 748 mmHg 89%
    23:00 +20°C° 0 mm 3 m/s 748 mmHg 90%

    Après-demain, 22 Août, Jeudi

    Heure Température Précipitation Vent Pression Humidité
    00:00 +19°C° 0.1 mm 3 m/s 748 mmHg 90%
    01:00 +19°C° 0.1 mm 2 m/s 748 mmHg 90%
    02:00 +19°C° 0.1 mm 2 m/s 749 mmHg 91%
    03:00 +18°C° 0.3 mm 3 m/s 749 mmHg 93%
    04:00 +18°C° 0.3 mm 3 m/s 749 mmHg 95%
    05:00 +17°C° 0.3 mm 3 m/s 749 mmHg 97%
    06:00 +17°C° 0.4 mm 3 m/s 749 mmHg 96%
    07:00 +15°C° 0.4 mm 4 m/s 749 mmHg 95%
    08:00 +15°C° 0.4 mm 4 m/s 750 mmHg 94%
    09:00 +17°C° 0.1 mm 4 m/s 750 mmHg 90%
    10:00 +17°C° 0.1 mm 4 m/s 751 mmHg 86%
    11:00 +18°C° 0.1 mm 4 m/s 751 mmHg 82%
    12:00 +19°C° 0 mm 4 m/s 751 mmHg 76%
    13:00 +21°C° 0 mm 4 m/s 751 mmHg 70%
    14:00 +22°C° 0 mm 3 m/s 751 mmHg 64%
    15:00 +22°C° 0 mm 3 m/s 751 mmHg 66%
    16:00 +21°C° 0 mm 3 m/s 751 mmHg 69%
    17:00 +21°C° 0 mm 2 m/s 751 mmHg 72%
    18:00 +20°C° 0 mm 2 m/s 752 mmHg 76%
    19:00 +18°C° 0 mm 2 m/s 752 mmHg 80%
    20:00 +16°C° 0 mm 2 m/s 752 mmHg 84%
    21:00 +15°C° 0 mm 2 m/s 752 mmHg 85%
    22:00 +15°C° 0 mm 2 m/s 752 mmHg 85%
    23:00 +14°C° 0 mm 2 m/s 753 mmHg 85%

    23 Août, Vendredi

    Heure Température Précipitation Vent Pression Humidité
    00:00 +13°C° 0 mm 2 m/s 753 mmHg 86%
    01:00 +13°C° 0 mm 2 m/s 753 mmHg 87%
    02:00 +12°C° 0 mm 2 m/s 753 mmHg 89%
    03:00 +12°C° 0 mm 1 m/s 753 mmHg 89%
    04:00 +11°C° 0 mm 1 m/s 753 mmHg 90%
    05:00 +11°C° 0 mm 1 m/s 753 mmHg 91%
    06:00 +13°C° 0 mm 1 m/s 753 mmHg 85%
    07:00 +15°C° 0 mm 1 m/s 753 mmHg 79%
    08:00 +18°C° 0 mm 1 m/s 753 mmHg 74%
    09:00 +19°C° 0 mm 1 m/s 753 mmHg 68%
    10:00 +21°C° 0 mm 1 m/s 754 mmHg 63%
    11:00 +22°C° 0 mm 1 m/s 754 mmHg 58%
    12:00 +21°C° 0 mm 2 m/s 753 mmHg 55%
    13:00 +23°C° 0 mm 2 m/s 753 mmHg 53%
    14:00 +23°C° 0 mm 2 m/s 753 mmHg 51%
    15:00 +23°C° 0 mm 2 m/s 753 mmHg 56%
    16:00 +21°C° 0 mm 2 m/s 753 mmHg 62%
    17:00 +21°C° 0 mm 2 m/s 753 mmHg 67%
    18:00 +19°C° 0 mm 2 m/s 753 mmHg 73%
    19:00 +17°C° 0 mm 2 m/s 753 mmHg 78%
    20:00 +15°C° 0 mm 2 m/s 753 mmHg 83%
    21:00 +15°C° 0 mm 2 m/s 753 mmHg 85%
    22:00 +14°C° 0 mm 1 m/s 753 mmHg 87%
    23:00 +13°C° 0 mm 1 m/s 754 mmHg 89%

    24 Août, Samedi

    Heure Température Précipitation Vent Pression Humidité
    00:00 +13°C° 0 mm 1 m/s 754 mmHg 90%
    01:00 +13°C° 0 mm 1 m/s 754 mmHg 91%
    02:00 +13°C° 0 mm 1 m/s 754 mmHg 92%
    03:00 +12°C° 0 mm 1 m/s 754 mmHg 92%
    04:00 +12°C° 0 mm 1 m/s 754 mmHg 93%
    05:00 +12°C° 0 mm 1 m/s 754 mmHg 93%
    06:00 +14°C° 0 mm 1 m/s 754 mmHg 87%
    07:00 +16°C° 0 mm 1 m/s 754 mmHg 81%
    08:00 +19°C° 0 mm 1 m/s 754 mmHg 75%
    09:00 +20°C° 0 mm 1 m/s 754 mmHg 70%
    10:00 +20°C° 0 mm 2 m/s 754 mmHg 65%
    11:00 +21°C° 0 mm 2 m/s 754 mmHg 60%
    12:00 +23°C° 0 mm 2 m/s 754 mmHg 58%
    13:00 +23°C° 0 mm 2 m/s 754 mmHg 57%
    14:00 +23°C° 0 mm 2 m/s 753 mmHg 56%
    15:00 +23°C° 0 mm 2 m/s 753 mmHg 60%
    16:00 +21°C° 0 mm 2 m/s 753 mmHg 65%
    17:00 +21°C° 0 mm 2 m/s 753 mmHg 70%
    18:00 +19°C° 0 mm 2 m/s 753 mmHg 76%
    19:00 +18°C° 0 mm 2 m/s 752 mmHg 82%
    20:00 +16°C° 0 mm 2 m/s 752 mmHg 88%
    21:00 +15°C° 0 mm 2 m/s 752 mmHg 90%
    22:00 +15°C° 0 mm 2 m/s 752 mmHg 92%
    23:00 +15°C° 0 mm 2 m/s 752 mmHg 93%

    25 Août, Dimanche

    Heure Température Précipitation Vent Pression Humidité
    00:00 +14°C° 0 mm 2 m/s 752 mmHg 93%
    01:00 +14°C° 0 mm 2 m/s 752 mmHg 93%
    02:00 +14°C° 0 mm 2 m/s 752 mmHg 94%
    03:00 +13°C° 0 mm 2 m/s 752 mmHg 94%
    04:00 +13°C° 0 mm 2 m/s 752 mmHg 94%
    05:00 +13°C° 0 mm 2 m/s 752 mmHg 94%
    06:00 +14°C° 0 mm 2 m/s 752 mmHg 89%
    07:00 +16°C° 0 mm 2 m/s 752 mmHg 83%
    08:00 +18°C° 0 mm 2 m/s 752 mmHg 78%
    09:00 +19°C° 0 mm 3 m/s 751 mmHg 73%
    10:00 +21°C° 0 mm 3 m/s 751 mmHg 69%
    11:00 +22°C° 0 mm 3 m/s 751 mmHg 64%
    12:00 +24°C° 0 mm 3 m/s 751 mmHg 63%
    13:00 +24°C° 0 mm 3 m/s 751 mmHg 62%
    14:00 +24°C° 0 mm 3 m/s 751 mmHg 61%
    15:00 +24°C° 0.1 mm 3 m/s 750 mmHg 65%
    16:00 +22°C° 0.1 mm 3 m/s 750 mmHg 70%
    17:00 +23°C° 0.1 mm 2 m/s 750 mmHg 75%
    18:00 +20°C° 0 mm 2 m/s 750 mmHg 81%
    19:00 +18°C° 0 mm 2 m/s 750 mmHg 86%
    20:00 +18°C° 0 mm 1 m/s 750 mmHg 91%
    21:00 +16°C° 0 mm 1 m/s 750 mmHg 92%
    22:00 +16°C° 0 mm 1 m/s 750 mmHg 92%
    23:00 +15°C° 0 mm 1 m/s 751 mmHg 93%
    Voir plus